Change the Weather History Date:

Friday, February 1, 2013

  Actual Average Record
Temperature  
Mean Temperature 14 °F 28 °F  
Max Temperature 22 °F 36 °F 38 °F (2014)
Min Temperature 5 °F 20 °F 17 °F (2015)
Degree Days  
Heating Degree Days 51 37  
Month to date heating degree days 51 37  
Since 1 July heating degree days 3078 3344  
Cooling Degree Days 0 0  
Month to date cooling degree days 0 0  
Year to date cooling degree days 0 0  
Moisture  
Dew Point 3 °F    
Average Humidity 61    
Maximum Humidity 76    
Minimum Humidity 45    
Precipitation  
Precipitation T in 0.05 in 0.99 in (2014)
Month to date precipitation T 0.05  
Year to date precipitation 2.15 1.79  
Sea Level Pressure  
Sea Level Pressure 30.37 in    
Wind  
Wind Speed 12 mph (WSW)    
Max Wind Speed 23 mph    
Max Gust Speed 32 mph    
Visibility 9 miles    
Events Snow    
T = Trace of Precipitation, MM = Missing Value Source: NWS Daily Summary

Daily Weather History Graph

Daily Weather History Graph

Search for Another Location

Airport or City:

Trip Planner

Search our weather history database for the weather conditions in past years. The results will help you decide how hot, cold, wet, or windy it might be!

Date:

Astronomy

Feb. 01, 2013 Rise Set
Actual Time 7:03 AM CST 5:15 PM CST
Civil Twilight 6:34 AM CST 5:43 PM CST
Nautical Twilight 6:02 AM CST 6:16 PM CST
Astronomical Twilight 5:30 AM CST 6:47 PM CST
Moon 11:21 PM CST (2/1) 9:37 AM CST (2/1)
Length of Visible Light 11h 09m
Length of Day
10h 11m
Waning Gibbous, 70% of the Moon is Illuminated
Feb 1
Waning Gibbous
Feb 3
Last Quarter
Feb 10
New
Feb 17
First Quarter
Feb 25
Full

Hourly Weather History & Observations

Time (CST) Temp. Windchill Dew Point Humidity Pressure Visibility Wind Dir Wind Speed Gust Speed Precip Events Conditions
12:05 AM 6.8 °F -13.4 °F -2.2 °F 67% 30.29 in 10.0 mi WNW 20.7 mph 29.9 mph N/A   Partly Cloudy
12:54 AM 7.0 °F -8.3 °F -0.9 °F 70% 30.36 in 10.0 mi West 11.5 mph 27.6 mph N/A   Mostly Cloudy
1:54 AM 7.0 °F -11.6 °F -2.0 °F 67% 30.37 in 10.0 mi WNW 17.3 mph 21.9 mph 0.00 in   Mostly Cloudy
2:54 AM 7.0 °F -11.6 °F -0.9 °F 70% 30.38 in 5.0 mi West 17.3 mph 25.3 mph 0.00 in   Haze
3:54 AM 6.1 °F -13.3 °F -2.9 °F 67% 30.39 in 10.0 mi WNW 18.4 mph 27.6 mph N/A   Partly Cloudy
5:24 AM 5.0 °F - -2.2 °F 72% 30.37 in 10.0 mi North - - N/A   Mostly Cloudy
5:50 AM 5.0 °F -9.1 °F -2.2 °F 72% 30.37 in 10.0 mi WNW 9.2 mph - N/A   Scattered Clouds
5:54 AM 5.0 °F -10.8 °F -2.0 °F 73% 30.42 in 10.0 mi WNW 11.5 mph - N/A   Scattered Clouds
6:54 AM 5.0 °F -9.1 °F -2.9 °F 70% 30.45 in 10.0 mi WNW 9.2 mph 18.4 mph N/A   Partly Cloudy
7:54 AM 5.0 °F -11.6 °F -2.9 °F 70% 30.47 in 10.0 mi West 12.7 mph 17.3 mph N/A   Clear
9:54 AM 10.0 °F -0.9 °F -2.0 °F 58% 30.49 in 10.0 mi WNW 6.9 mph - N/A   Clear
10:54 AM 12.0 °F -1.3 °F -0.9 °F 56% 30.49 in 10.0 mi West 10.4 mph - N/A   Clear
11:54 AM 15.1 °F 3.3 °F -0.0 °F 51% 30.47 in 10.0 mi WSW 9.2 mph - N/A   Clear
12:54 PM 17.1 °F 4.3 °F 1.0 °F 50% 30.43 in 10.0 mi West 11.5 mph - N/A   Clear
1:54 PM 19.0 °F 5.6 °F 1.9 °F 47% 30.40 in 10.0 mi SW 13.8 mph 19.6 mph N/A   Clear
2:54 PM 19.9 °F 6.7 °F 3.9 °F 50% 30.40 in 10.0 mi WSW 13.8 mph 19.6 mph N/A   Clear
3:54 PM 19.0 °F 9.0 °F 3.9 °F 52% 30.33 in 10.0 mi SSW 8.1 mph - N/A   Clear
5:54 PM 21.0 °F 9.3 °F 6.1 °F 53% 30.36 in 10.0 mi WSW 11.5 mph - N/A   Overcast
6:54 PM 21.9 °F 9.2 °F 7.0 °F 53% 30.35 in 10.0 mi SW 13.8 mph - N/A   Overcast
7:54 PM 21.0 °F 11.4 °F 7.0 °F 55% 30.33 in 10.0 mi SW 8.1 mph - N/A   Scattered Clouds
8:54 PM 21.0 °F 9.9 °F 9.0 °F 60% 30.30 in 10.0 mi South 10.4 mph - N/A   Scattered Clouds
9:54 PM 21.0 °F 9.3 °F 10.0 °F 63% 30.27 in 10.0 mi South 11.5 mph - N/A   Overcast
10:48 PM 21.2 °F - 14.0 °F 74% 30.23 in 1.8 mi North - - 0.00 in Snow Light Snow
10:54 PM 21.0 °F - 15.1 °F 78% 30.26 in 1.2 mi North - - 0.00 in Snow Light Snow
11:54 PM 21.0 °F 8.1 °F 18.0 °F 88% 30.23 in 1.2 mi SSW 13.8 mph - 0.00 in Snow Light Snow